DAL249 CYUL-KMIA

Flight info

Callsign DAL249
Flight time 3h 10m
Altitude 36000
Route FAWNS BUGSY PONCT Q437 METRO Q437 CRPLR BGBRD Q101 SKARP Y313 HOAGG BNFSH3
Aircraft A321/M-SDE3FGHIRWY/LB1

Departure

Time 2026-05-07 23:25
Airport Montreal / Pierre Elliott Trudeau International Airport (CYUL)

Arrival

Time 2026-05-08 02:36
Airport Miami International Airport (KMIA)
Time Latitude Longitude Altitude Speed Heading
2026-05-07 22:47 45.45579 -73.75583 103 ft 0 kts 154°
2026-05-07 23:07 45.45583 -73.75586 104 ft 4 kts 155°
2026-05-07 23:07 45.45608 -73.75596 103 ft 4 kts 184°
2026-05-07 23:08 45.45630 -73.75585 104 ft 4 kts 237°
2026-05-07 23:08 45.45636 -73.75569 102 ft 0 kts 257°
2026-05-07 23:08 45.45630 -73.75604 104 ft 2 kts 257°
2026-05-07 23:08 45.45630 -73.75606 104 ft 0 kts 257°
2026-05-07 23:10 45.45625 -73.75638 103 ft 6 kts 257°
2026-05-07 23:11 45.45616 -73.75696 105 ft 6 kts 263°
2026-05-07 23:11 45.45624 -73.75750 114 ft 5 kts 294°
2026-05-07 23:11 45.45646 -73.75791 103 ft 5 kts 316°
2026-05-07 23:11 45.45677 -73.75812 105 ft 5 kts 343°
2026-05-07 23:12 45.45707 -73.75820 105 ft 4 kts 350°
2026-05-07 23:12 45.45735 -73.75828 105 ft 4 kts 349°
2026-05-07 23:12 45.45757 -73.75839 105 ft 3 kts 327°
2026-05-07 23:12 45.45770 -73.75861 105 ft 3 kts 307°
2026-05-07 23:13 45.45780 -73.75881 105 ft 2 kts 307°
2026-05-07 23:13 45.45790 -73.75900 105 ft 3 kts 308°
2026-05-07 23:13 45.45832 -73.75932 105 ft 8 kts 342°
2026-05-07 23:13 45.45866 -73.75944 105 ft 3 kts 347°
2026-05-07 23:14 45.45884 -73.75949 105 ft 2 kts 350°
2026-05-07 23:14 45.45903 -73.75952 105 ft 4 kts 354°
2026-05-07 23:14 45.45930 -73.75955 105 ft 4 kts 356°
2026-05-07 23:14 45.45988 -73.75960 105 ft 15 kts 356°
2026-05-07 23:15 45.46057 -73.75877 104 ft 16 kts 87°
2026-05-07 23:15 45.46058 -73.75729 104 ft 14 kts 89°
2026-05-07 23:15 45.46061 -73.75597 104 ft 12 kts 87°
2026-05-07 23:15 45.46066 -73.75480 104 ft 11 kts 86°
2026-05-07 23:16 45.46054 -73.75363 102 ft 15 kts 116°
2026-05-07 23:16 45.46009 -73.75211 105 ft 16 kts 98°
2026-05-07 23:16 45.46007 -73.75059 105 ft 15 kts 91°
2026-05-07 23:16 45.45982 -73.74927 105 ft 13 kts 96°
2026-05-07 23:17 45.45981 -73.74794 105 ft 16 kts 95°
2026-05-07 23:17 45.45956 -73.74626 105 ft 18 kts 89°
2026-05-07 23:17 45.45983 -73.74461 103 ft 17 kts 71°
2026-05-07 23:17 45.45982 -73.74307 103 ft 15 kts 92°
2026-05-07 23:18 45.46044 -73.74183 101 ft 19 kts 44°
2026-05-07 23:18 45.46152 -73.74040 105 ft 21 kts 43°
2026-05-07 23:18 45.46256 -73.73904 105 ft 20 kts 42°
2026-05-07 23:18 45.46354 -73.73777 107 ft 18 kts 43°
2026-05-07 23:19 45.46443 -73.73662 109 ft 16 kts 42°
2026-05-07 23:19 45.46522 -73.73556 108 ft 15 kts 44°
2026-05-07 23:19 45.46609 -73.73442 110 ft 21 kts 42°
2026-05-07 23:19 45.46727 -73.73288 112 ft 23 kts 42°
2026-05-07 23:20 45.46841 -73.73140 114 ft 21 kts 43°
2026-05-07 23:20 45.46944 -73.73000 115 ft 20 kts 44°
2026-05-07 23:20 45.47042 -73.72875 115 ft 18 kts 44°
2026-05-07 23:20 45.47130 -73.72759 116 ft 17 kts 43°
2026-05-07 23:21 45.47214 -73.72650 115 ft 16 kts 43°
2026-05-07 23:21 45.47292 -73.72547 118 ft 15 kts 43°
2026-05-07 23:21 45.47366 -73.72449 118 ft 16 kts 43°
2026-05-07 23:21 45.47464 -73.72320 117 ft 19 kts 42°
2026-05-07 23:22 45.47561 -73.72194 119 ft 18 kts 42°
2026-05-07 23:22 45.47652 -73.72074 120 ft 17 kts 42°
2026-05-07 23:22 45.47737 -73.71964 121 ft 16 kts 42°
2026-05-07 23:22 45.47802 -73.71849 120 ft 14 kts 80°
2026-05-07 23:23 45.47775 -73.71734 120 ft 12 kts 127°
2026-05-07 23:23 45.47724 -73.71657 124 ft 9 kts 139°
2026-05-07 23:23 45.47674 -73.71642 123 ft 6 kts 208°
2026-05-07 23:23 45.47659 -73.71661 124 ft 0 kts 222°
2026-05-07 23:24 45.47659 -73.71662 124 ft 1 kts 222°
2026-05-07 23:24 45.47553 -73.71800 123 ft 54 kts 223°
2026-05-07 23:24 45.47101 -73.72394 115 ft 119 kts 222°
2026-05-07 23:25 45.46359 -73.73360 110 ft 168 kts 224°
2026-05-07 23:25 45.45503 -73.74495 670 ft 163 kts 227°
2026-05-07 23:25 45.44697 -73.75577 1468 ft 158 kts 228°
2026-05-07 23:25 45.43889 -73.76655 2059 ft 162 kts 229°
2026-05-07 23:26 45.43032 -73.77807 2434 ft 176 kts 229°
2026-05-07 23:26 45.42125 -73.79036 2874 ft 183 kts 228°
2026-05-07 23:26 45.41182 -73.80319 3285 ft 193 kts 228°
2026-05-07 23:26 45.40189 -73.81678 3668 ft 203 kts 228°
2026-05-07 23:27 45.37963 -73.84761 4339 ft 246 kts 226°
2026-05-07 23:27 45.36503 -73.86056 5103 ft 257 kts 208°
2026-05-07 23:27 45.34859 -73.87086 5959 ft 260 kts 208°
2026-05-07 23:28 45.33189 -73.88117 6795 ft 263 kts 208°
2026-05-07 23:28 45.31502 -73.89156 7599 ft 267 kts 208°
2026-05-07 23:28 45.29788 -73.90213 8395 ft 270 kts 208°
2026-05-07 23:28 45.28049 -73.91289 9189 ft 274 kts 208°
2026-05-07 23:29 45.26296 -73.92377 9948 ft 277 kts 208°
2026-05-07 23:29 45.24491 -73.93499 10401 ft 293 kts 208°
2026-05-07 23:29 45.22547 -73.94711 10577 ft 316 kts 208°
2026-05-07 23:29 45.20496 -73.95991 10724 ft 338 kts 207°
2026-05-07 23:30 45.18275 -73.97374 10916 ft 357 kts 207°
2026-05-07 23:30 45.15974 -73.98800 11480 ft 364 kts 207°
2026-05-07 23:30 45.13644 -74.00238 12161 ft 367 kts 207°
2026-05-07 23:30 45.11298 -74.01686 12854 ft 370 kts 207°
2026-05-07 23:31 45.08931 -74.03142 13545 ft 372 kts 208°
2026-05-07 23:31 45.06546 -74.04607 14153 ft 375 kts 208°
2026-05-07 23:31 45.04144 -74.06081 14726 ft 377 kts 208°
2026-05-07 23:31 45.01764 -74.07542 15336 ft 379 kts 208°
2026-05-07 23:32 44.99280 -74.08853 15911 ft 385 kts 200°
2026-05-07 23:32 44.96618 -74.09570 16476 ft 393 kts 193°
2026-05-07 23:32 44.93900 -74.10079 17053 ft 396 kts 193°
2026-05-07 23:32 44.91163 -74.10590 17613 ft 398 kts 193°
2026-05-07 23:33 44.88407 -74.11104 18167 ft 401 kts 193°
2026-05-07 23:33 44.85634 -74.11625 18642 ft 403 kts 193°
2026-05-07 23:33 44.82847 -74.12151 19133 ft 405 kts 194°
2026-05-07 23:33 44.80047 -74.12678 19630 ft 407 kts 194°
2026-05-07 23:34 44.77272 -74.13201 20122 ft 409 kts 194°
2026-05-07 23:34 44.74452 -74.13730 20624 ft 411 kts 193°
2026-05-07 23:34 44.71570 -74.13949 21097 ft 420 kts 185°
2026-05-07 23:34 44.68627 -74.13549 21559 ft 427 kts 180°
2026-05-07 23:35 44.65671 -74.13033 22010 ft 429 kts 180°
2026-05-07 23:35 44.62706 -74.12517 22534 ft 430 kts 180°
2026-05-07 23:35 44.59731 -74.12004 23011 ft 432 kts 180°
2026-05-07 23:35 44.56743 -74.11489 23449 ft 434 kts 180°
2026-05-07 23:36 44.53782 -74.10980 23800 ft 435 kts 180°
2026-05-07 23:36 44.50769 -74.10466 24156 ft 437 kts 180°
2026-05-07 23:36 44.47751 -74.09954 24507 ft 439 kts 181°
2026-05-07 23:36 44.44708 -74.09438 24846 ft 440 kts 181°
2026-05-07 23:37 44.41675 -74.08924 25246 ft 440 kts 181°
2026-05-07 23:37 44.38630 -74.08409 25603 ft 440 kts 182°
2026-05-07 23:37 44.35587 -74.07893 26015 ft 441 kts 182°
2026-05-07 23:37 44.32538 -74.07377 26364 ft 442 kts 182°
2026-05-07 23:38 44.29480 -74.06856 26759 ft 442 kts 182°
2026-05-07 23:38 44.26471 -74.06339 27200 ft 440 kts 182°
2026-05-07 23:38 44.23435 -74.05815 27609 ft 438 kts 183°
2026-05-07 23:38 44.20418 -74.05301 28067 ft 436 kts 183°
2026-05-07 23:39 44.17409 -74.04794 28527 ft 435 kts 183°
2026-05-07 23:39 44.14412 -74.04295 28989 ft 433 kts 184°
2026-05-07 23:39 44.11428 -74.03797 29431 ft 431 kts 184°
2026-05-07 23:39 44.08451 -74.03302 29861 ft 430 kts 184°
2026-05-07 23:40 44.05483 -74.02805 30189 ft 429 kts 184°
2026-05-07 23:40 44.02524 -74.02308 30533 ft 428 kts 184°
2026-05-07 23:40 43.99569 -74.01811 30868 ft 428 kts 184°
2026-05-07 23:40 43.96654 -74.01319 31156 ft 428 kts 184°
2026-05-07 23:41 43.93697 -74.00824 31440 ft 428 kts 184°
2026-05-07 23:41 43.90745 -74.00335 31716 ft 428 kts 184°
2026-05-07 23:41 43.87785 -73.99845 31976 ft 428 kts 184°
2026-05-07 23:41 43.84830 -73.99357 32301 ft 427 kts 184°
2026-05-07 23:42 43.81883 -73.98865 32626 ft 426 kts 184°
2026-05-07 23:42 43.78937 -73.98368 32935 ft 426 kts 183°
2026-05-07 23:42 43.75991 -73.97875 33206 ft 426 kts 183°
2026-05-07 23:42 43.73043 -73.97385 33465 ft 427 kts 183°
2026-05-07 23:43 43.70095 -73.96897 33751 ft 427 kts 183°
2026-05-07 23:43 43.67184 -73.96419 33995 ft 427 kts 183°
2026-05-07 23:43 43.64233 -73.95933 34196 ft 427 kts 183°
2026-05-07 23:43 43.61277 -73.95443 34403 ft 428 kts 183°
2026-05-07 23:44 43.58324 -73.94956 34620 ft 428 kts 183°
2026-05-07 23:44 43.55356 -73.94468 34806 ft 429 kts 183°
2026-05-07 23:44 43.52400 -73.93985 34983 ft 429 kts 183°
2026-05-07 23:44 43.49433 -73.93501 35171 ft 430 kts 183°
2026-05-07 23:45 43.46463 -73.93012 35320 ft 430 kts 183°
2026-05-07 23:45 43.43491 -73.92519 35545 ft 430 kts 183°
2026-05-07 23:45 43.40519 -73.92026 35749 ft 430 kts 183°
2026-05-07 23:45 43.37582 -73.91541 35844 ft 431 kts 183°
2026-05-07 23:46 43.31626 -73.90560 35860 ft 431 kts 183°
2026-05-07 23:46 43.25672 -73.89587 35847 ft 431 kts 183°
2026-05-07 23:47 43.20727 -73.88784 35863 ft 431 kts 183°
2026-05-07 23:47 43.14770 -73.87811 35868 ft 431 kts 183°
2026-05-07 23:48 43.07850 -73.86696 35873 ft 431 kts 184°
2026-05-07 23:48 43.01894 -73.85736 35865 ft 431 kts 184°
2026-05-07 23:49 42.96901 -73.84919 35878 ft 431 kts 184°
2026-05-07 23:49 42.90987 -73.83957 35886 ft 431 kts 184°
2026-05-07 23:50 42.85023 -73.82998 35871 ft 432 kts 184°
2026-05-07 23:50 42.79049 -73.82035 35877 ft 433 kts 184°
2026-05-07 23:51 42.73089 -73.81321 35877 ft 423 kts 191°
2026-05-07 23:51 42.67207 -73.81341 35851 ft 423 kts 191°
2026-05-07 23:52 42.61332 -73.81356 35867 ft 423 kts 191°
2026-05-07 23:52 42.55488 -73.81360 35878 ft 423 kts 191°
2026-05-07 23:53 42.49601 -73.81361 35885 ft 423 kts 191°
2026-05-07 23:53 42.43715 -73.81360 35850 ft 423 kts 191°
2026-05-07 23:54 42.37830 -73.81361 35872 ft 423 kts 191°
2026-05-07 23:54 42.31941 -73.81365 35880 ft 423 kts 191°
2026-05-07 23:55 42.26096 -73.81372 35833 ft 423 kts 191°
2026-05-07 23:55 42.20212 -73.81386 35847 ft 423 kts 191°
2026-05-07 23:56 42.14328 -73.81389 35859 ft 423 kts 191°
2026-05-07 23:56 42.08439 -73.81387 35860 ft 423 kts 191°
2026-05-07 23:57 42.02592 -73.81390 35829 ft 423 kts 192°
2026-05-07 23:57 41.96700 -73.81401 35839 ft 423 kts 192°
2026-05-07 23:58 41.90804 -73.81411 35843 ft 424 kts 192°
2026-05-07 23:58 41.84904 -73.81411 35816 ft 424 kts 192°
2026-05-07 23:59 41.78987 -73.81423 35854 ft 426 kts 192°
2026-05-07 23:59 41.73099 -73.81433 35856 ft 426 kts 192°
2026-05-08 00:00 41.67178 -73.81433 35852 ft 426 kts 192°
2026-05-08 00:00 41.61256 -73.81435 35859 ft 425 kts 192°
2026-05-08 00:01 41.55432 -73.81849 35857 ft 404 kts 206°
2026-05-08 00:01 41.52885 -73.83169 35864 ft 384 kts 218°
2026-05-08 00:01 41.50606 -73.84915 35860 ft 383 kts 219°
2026-05-08 00:02 41.45997 -73.88491 35811 ft 383 kts 219°
2026-05-08 00:02 41.41387 -73.92064 35830 ft 384 kts 219°
2026-05-08 00:03 41.36755 -73.95620 35843 ft 384 kts 219°
2026-05-08 00:03 41.32080 -73.99025 35841 ft 392 kts 212°
2026-05-08 00:04 41.27015 -74.01758 35822 ft 394 kts 212°
2026-05-08 00:04 41.21923 -74.04452 35824 ft 394 kts 212°
2026-05-08 00:05 41.16822 -74.07148 35835 ft 395 kts 212°
2026-05-08 00:05 41.11719 -74.09848 35854 ft 395 kts 212°
2026-05-08 00:06 41.06650 -74.12525 35839 ft 395 kts 212°
2026-05-08 00:06 41.01549 -74.15224 35859 ft 395 kts 212°
2026-05-08 00:07 40.96447 -74.17914 35864 ft 395 kts 212°
2026-05-08 00:07 40.91341 -74.20602 35869 ft 395 kts 212°
2026-05-08 00:08 40.86237 -74.23287 35851 ft 395 kts 212°
2026-05-08 00:08 40.81161 -74.25955 35867 ft 396 kts 212°
2026-05-08 00:09 40.76039 -74.28632 35875 ft 396 kts 212°
2026-05-08 00:09 40.70920 -74.31305 35877 ft 395 kts 212°
2026-05-08 00:10 40.65810 -74.33975 35835 ft 395 kts 212°
2026-05-08 00:10 40.60726 -74.36627 35871 ft 396 kts 212°
2026-05-08 00:11 40.55602 -74.39293 35867 ft 396 kts 212°
2026-05-08 00:11 40.50474 -74.41955 35868 ft 396 kts 212°
2026-05-08 00:12 40.45341 -74.44615 35829 ft 397 kts 212°
2026-05-08 00:12 40.40242 -74.47260 35835 ft 397 kts 212°
2026-05-08 00:13 40.35106 -74.49912 35848 ft 397 kts 212°
2026-05-08 00:13 40.29961 -74.52572 35783 ft 397 kts 212°
2026-05-08 00:14 40.24808 -74.55229 35850 ft 399 kts 212°
2026-05-08 00:14 40.19676 -74.57865 35861 ft 399 kts 212°
2026-05-08 00:15 40.14509 -74.60518 35865 ft 399 kts 212°
2026-05-08 00:15 40.09352 -74.63162 35827 ft 398 kts 212°
2026-05-08 00:16 40.04183 -74.65807 35857 ft 399 kts 212°
2026-05-08 00:16 39.99019 -74.68441 35866 ft 399 kts 212°
2026-05-08 00:17 39.93881 -74.71064 35865 ft 399 kts 212°
2026-05-08 00:17 39.88704 -74.73698 35818 ft 399 kts 212°
2026-05-08 00:18 39.83528 -74.76337 35846 ft 400 kts 212°
2026-05-08 00:18 39.78350 -74.78977 35854 ft 400 kts 212°
2026-05-08 00:19 39.73167 -74.81594 35860 ft 400 kts 212°
2026-05-08 00:19 39.68009 -74.84196 35865 ft 400 kts 212°
2026-05-08 00:20 39.62815 -74.86824 35881 ft 401 kts 212°
2026-05-08 00:20 39.57626 -74.89447 35885 ft 399 kts 213°
2026-05-08 00:21 39.55188 -74.91063 35886 ft 388 kts 221°
2026-05-08 00:21 39.52902 -74.92901 35887 ft 388 kts 221°
2026-05-08 00:21 39.48344 -74.96553 35853 ft 388 kts 221°
2026-05-08 00:22 39.43750 -75.00221 35857 ft 388 kts 221°
2026-05-08 00:22 39.39144 -75.03879 35868 ft 389 kts 220°
2026-05-08 00:23 39.34538 -75.07529 35911 ft 389 kts 221°
2026-05-08 00:23 39.30013 -75.11235 35902 ft 382 kts 226°
2026-05-08 00:24 39.26088 -75.15756 35847 ft 378 kts 230°
2026-05-08 00:24 39.22197 -75.20325 35864 ft 379 kts 230°
2026-05-08 00:25 39.18318 -75.24863 35871 ft 379 kts 230°
2026-05-08 00:25 39.14408 -75.29423 35881 ft 380 kts 230°
2026-05-08 00:26 39.10487 -75.33986 35886 ft 380 kts 230°
2026-05-08 00:26 39.06562 -75.38550 35858 ft 380 kts 230°
2026-05-08 00:27 39.02353 -75.42759 35898 ft 394 kts 217°
2026-05-08 00:27 38.99809 -75.44109 35899 ft 409 kts 207°
2026-05-08 00:27 38.96962 -75.44811 35901 ft 424 kts 198°
2026-05-08 00:28 38.91081 -75.45608 35901 ft 425 kts 198°
2026-05-08 00:28 38.85194 -75.46403 35876 ft 425 kts 198°
2026-05-08 00:29 38.79317 -75.47214 35895 ft 425 kts 198°
2026-05-08 00:29 38.73474 -75.48022 35905 ft 425 kts 198°
2026-05-08 00:30 38.67588 -75.48826 35911 ft 425 kts 198°
2026-05-08 00:30 38.61703 -75.49623 35903 ft 425 kts 198°
2026-05-08 00:31 38.55820 -75.50415 35922 ft 425 kts 198°
2026-05-08 00:31 38.49940 -75.51223 35930 ft 425 kts 198°
2026-05-08 00:32 38.44102 -75.52013 35874 ft 425 kts 199°
2026-05-08 00:32 38.38236 -75.52800 35911 ft 422 kts 200°
2026-05-08 00:33 38.35410 -75.53514 35919 ft 407 kts 209°
2026-05-08 00:33 38.32799 -75.54734 35925 ft 394 kts 217°
2026-05-08 00:33 38.30439 -75.56390 35929 ft 382 kts 224°
2026-05-08 00:33 38.28263 -75.58306 35932 ft 380 kts 225°
2026-05-08 00:34 38.23929 -75.62104 35937 ft 381 kts 224°
2026-05-08 00:34 38.19562 -75.65892 35924 ft 380 kts 225°
2026-05-08 00:35 38.15207 -75.69666 35940 ft 378 kts 225°
2026-05-08 00:35 38.10857 -75.73430 35945 ft 377 kts 225°
2026-05-08 00:36 38.06526 -75.77179 35944 ft 377 kts 225°
2026-05-08 00:36 38.02225 -75.80904 35898 ft 377 kts 226°
2026-05-08 00:37 37.97904 -75.84634 35932 ft 375 kts 226°
2026-05-08 00:38 37.91462 -75.90197 35943 ft 373 kts 226°
2026-05-08 00:38 37.87174 -75.93889 35941 ft 372 kts 226°
2026-05-08 00:39 37.82916 -75.97550 35941 ft 372 kts 226°
2026-05-08 00:39 37.78639 -76.01227 35905 ft 371 kts 226°
2026-05-08 00:40 37.74374 -76.04882 35926 ft 370 kts 226°
2026-05-08 00:40 37.70112 -76.08533 35934 ft 370 kts 227°
2026-05-08 00:41 37.65883 -76.12152 35941 ft 369 kts 226°
2026-05-08 00:41 37.61543 -76.15680 35961 ft 380 kts 220°
2026-05-08 00:41 37.59025 -76.16915 35958 ft 400 kts 210°
2026-05-08 00:42 37.56245 -76.17620 35961 ft 411 kts 206°
2026-05-08 00:42 37.50612 -76.18857 35958 ft 411 kts 206°
2026-05-08 00:43 37.45014 -76.20090 35953 ft 411 kts 206°
2026-05-08 00:43 37.39379 -76.21339 35951 ft 411 kts 206°
2026-05-08 00:44 37.33743 -76.22591 35909 ft 411 kts 206°
2026-05-08 00:44 37.28116 -76.23842 35925 ft 411 kts 206°
2026-05-08 00:45 37.22519 -76.25084 35927 ft 411 kts 206°
2026-05-08 00:45 37.16883 -76.26331 35931 ft 411 kts 206°
2026-05-08 00:46 37.11250 -76.27578 35909 ft 412 kts 206°
2026-05-08 00:46 37.05604 -76.28819 35923 ft 412 kts 206°
2026-05-08 00:47 36.99956 -76.30054 35939 ft 412 kts 206°
2026-05-08 00:47 36.94356 -76.31281 35940 ft 411 kts 206°
2026-05-08 00:48 36.88722 -76.32533 35914 ft 412 kts 206°
2026-05-08 00:48 36.83068 -76.33783 35930 ft 413 kts 206°
2026-05-08 00:49 36.77409 -76.35019 35939 ft 413 kts 206°
2026-05-08 00:49 36.71787 -76.36230 35949 ft 412 kts 206°
2026-05-08 00:50 36.66141 -76.37449 35921 ft 412 kts 206°
2026-05-08 00:50 36.60477 -76.38682 35933 ft 413 kts 206°
2026-05-08 00:51 36.54826 -76.39916 35935 ft 413 kts 206°
2026-05-08 00:51 36.49163 -76.41144 35936 ft 413 kts 206°
2026-05-08 00:52 36.43537 -76.42356 35912 ft 413 kts 206°
2026-05-08 00:52 36.37873 -76.43593 35925 ft 413 kts 206°
2026-05-08 00:53 36.32208 -76.44819 35932 ft 414 kts 206°
2026-05-08 00:53 36.26536 -76.46042 35938 ft 414 kts 206°
2026-05-08 00:54 36.20902 -76.47251 35911 ft 413 kts 205°
2026-05-08 00:54 36.15234 -76.48470 35930 ft 413 kts 205°
2026-05-08 00:55 36.09567 -76.49692 35949 ft 413 kts 206°
2026-05-08 00:55 36.03937 -76.50906 35983 ft 413 kts 206°
2026-05-08 00:56 35.98276 -76.52121 35897 ft 413 kts 206°
2026-05-08 00:56 35.92598 -76.53336 35928 ft 414 kts 205°
2026-05-08 00:56 35.89842 -76.54127 35930 ft 400 kts 213°
2026-05-08 00:57 35.87312 -76.55369 35932 ft 384 kts 220°
2026-05-08 00:57 35.82560 -76.58337 35914 ft 383 kts 220°
2026-05-08 00:58 35.77818 -76.61258 35914 ft 384 kts 220°
2026-05-08 00:58 35.73037 -76.64189 35878 ft 384 kts 220°
2026-05-08 00:59 35.68260 -76.67127 35886 ft 384 kts 220°
2026-05-08 00:59 35.63468 -76.70065 35894 ft 385 kts 220°
2026-05-08 01:00 35.58706 -76.72988 35898 ft 385 kts 220°
2026-05-08 01:00 35.53911 -76.75932 35906 ft 385 kts 220°
2026-05-08 01:01 35.49110 -76.78883 35886 ft 388 kts 220°
2026-05-08 01:01 35.44253 -76.81862 35903 ft 392 kts 220°
2026-05-08 01:02 35.39402 -76.84813 35915 ft 392 kts 220°
2026-05-08 01:02 35.34519 -76.87779 35952 ft 391 kts 220°
2026-05-08 01:03 35.29648 -76.90742 35942 ft 390 kts 220°
2026-05-08 01:03 35.24788 -76.93700 35929 ft 390 kts 220°
2026-05-08 01:04 35.19985 -76.96660 35920 ft 388 kts 220°
2026-05-08 01:04 35.15188 -76.99685 35953 ft 388 kts 220°
2026-05-08 01:05 35.10399 -77.02711 35952 ft 388 kts 220°
2026-05-08 01:05 35.05596 -77.05716 35905 ft 388 kts 220°
2026-05-08 01:06 35.00782 -77.08713 35907 ft 389 kts 220°
2026-05-08 01:06 34.95996 -77.11705 35915 ft 389 kts 220°
2026-05-08 01:07 34.91173 -77.14724 35913 ft 390 kts 220°
2026-05-08 01:07 34.86339 -77.17724 35891 ft 390 kts 220°
2026-05-08 01:08 34.81494 -77.20722 35841 ft 391 kts 220°
2026-05-08 01:08 34.76665 -77.23715 35905 ft 393 kts 220°
2026-05-08 01:09 34.71796 -77.26736 35917 ft 393 kts 220°
2026-05-08 01:09 34.66929 -77.29752 35923 ft 393 kts 220°
2026-05-08 01:10 34.62066 -77.32756 35923 ft 392 kts 220°
2026-05-08 01:10 34.57231 -77.35746 35884 ft 392 kts 220°
2026-05-08 01:11 34.52366 -77.38738 35890 ft 393 kts 220°
2026-05-08 01:11 34.47230 -77.41291 35891 ft 415 kts 207°
2026-05-08 01:12 34.41436 -77.42483 35877 ft 424 kts 203°
2026-05-08 01:12 34.35612 -77.43603 35878 ft 424 kts 204°
2026-05-08 01:13 34.29831 -77.44728 35848 ft 424 kts 203°
2026-05-08 01:13 34.23997 -77.45864 35849 ft 425 kts 203°
2026-05-08 01:14 34.18154 -77.47002 35862 ft 425 kts 203°
2026-05-08 01:14 34.12307 -77.48133 35867 ft 426 kts 203°
2026-05-08 01:15 34.06497 -77.49267 35838 ft 426 kts 203°
2026-05-08 01:15 34.00642 -77.50412 35848 ft 427 kts 203°
2026-05-08 01:16 33.94771 -77.51549 35860 ft 427 kts 203°
2026-05-08 01:16 33.88893 -77.52683 35864 ft 428 kts 203°
2026-05-08 01:17 33.83049 -77.53809 35838 ft 428 kts 203°
2026-05-08 01:17 33.77170 -77.54953 35857 ft 429 kts 203°
2026-05-08 01:18 33.71273 -77.56097 35865 ft 429 kts 203°
2026-05-08 01:18 33.65367 -77.57228 35877 ft 430 kts 203°
2026-05-08 01:19 33.59495 -77.58352 35883 ft 430 kts 203°
2026-05-08 01:19 33.56626 -77.59122 35865 ft 418 kts 209°
2026-05-08 01:19 33.53830 -77.60107 35907 ft 420 kts 210°
2026-05-08 01:20 33.48225 -77.62073 35915 ft 420 kts 210°
2026-05-08 01:20 33.42625 -77.64030 35916 ft 419 kts 210°
2026-05-08 01:21 33.37032 -77.65981 35919 ft 418 kts 210°
2026-05-08 01:21 33.31483 -77.67918 35866 ft 418 kts 209°
2026-05-08 01:22 33.25898 -77.69862 35879 ft 419 kts 209°
2026-05-08 01:22 33.20303 -77.71808 35888 ft 419 kts 209°
2026-05-08 01:23 33.14705 -77.73754 35900 ft 419 kts 209°
2026-05-08 01:23 33.09141 -77.75686 35905 ft 419 kts 209°
2026-05-08 01:24 33.03536 -77.77627 35876 ft 420 kts 208°
2026-05-08 01:24 32.97923 -77.79575 35905 ft 420 kts 208°
2026-05-08 01:25 32.92305 -77.81521 35914 ft 420 kts 208°
2026-05-08 01:25 32.86694 -77.83462 35921 ft 420 kts 208°
2026-05-08 01:26 32.81112 -77.85386 35921 ft 420 kts 208°
2026-05-08 01:26 32.75490 -77.87312 35928 ft 420 kts 208°
2026-05-08 01:27 32.69867 -77.89236 35930 ft 420 kts 208°
2026-05-08 01:27 32.64242 -77.91153 35935 ft 421 kts 208°
2026-05-08 01:28 32.58627 -77.92979 35938 ft 422 kts 207°
2026-05-08 01:28 32.52958 -77.94795 35904 ft 422 kts 206°
2026-05-08 01:29 32.47291 -77.96617 35933 ft 422 kts 207°
2026-05-08 01:29 32.41631 -77.98460 35943 ft 422 kts 207°
2026-05-08 01:30 32.36003 -78.00275 35951 ft 422 kts 207°
2026-05-08 01:30 32.30339 -78.02101 35912 ft 422 kts 206°
2026-05-08 01:31 32.24681 -78.03931 35930 ft 422 kts 206°
2026-05-08 01:31 32.19007 -78.05755 35939 ft 423 kts 206°
2026-05-08 01:32 32.13366 -78.07564 35954 ft 423 kts 206°
2026-05-08 01:32 32.07692 -78.09388 35959 ft 423 kts 206°
2026-05-08 01:33 32.02008 -78.11207 35919 ft 424 kts 206°
2026-05-08 01:33 31.96309 -78.13023 35929 ft 425 kts 206°
2026-05-08 01:34 31.90641 -78.14839 35942 ft 425 kts 206°
2026-05-08 01:34 31.84927 -78.16665 35955 ft 426 kts 206°
2026-05-08 01:35 31.79210 -78.18491 35944 ft 426 kts 205°
2026-05-08 01:35 31.73481 -78.20315 35951 ft 427 kts 205°
2026-05-08 01:36 31.67784 -78.22126 35953 ft 428 kts 205°
2026-05-08 01:36 31.62036 -78.23954 35963 ft 428 kts 205°
2026-05-08 01:37 31.56277 -78.25783 35970 ft 429 kts 205°
2026-05-08 01:37 31.50516 -78.27611 35935 ft 430 kts 204°
2026-05-08 01:38 31.44772 -78.29446 35941 ft 431 kts 205°
2026-05-08 01:38 31.39005 -78.31371 35952 ft 432 kts 205°
2026-05-08 01:39 31.33226 -78.33330 35962 ft 433 kts 205°
2026-05-08 01:39 31.27433 -78.35277 35973 ft 433 kts 205°
2026-05-08 01:40 31.21665 -78.37211 35958 ft 435 kts 205°
2026-05-08 01:40 31.15837 -78.39149 35964 ft 436 kts 204°
2026-05-08 01:41 31.09997 -78.41090 35965 ft 437 kts 205°
2026-05-08 01:41 31.04151 -78.43037 35975 ft 437 kts 205°
2026-05-08 01:42 30.98304 -78.44977 35964 ft 438 kts 204°
2026-05-08 01:42 30.92477 -78.46903 35966 ft 439 kts 204°
2026-05-08 01:43 30.86596 -78.48853 35971 ft 440 kts 204°
2026-05-08 01:43 30.80706 -78.50801 35979 ft 440 kts 204°
2026-05-08 01:44 30.74815 -78.52760 35985 ft 440 kts 204°
2026-05-08 01:44 30.68958 -78.54703 35960 ft 442 kts 204°
2026-05-08 01:45 30.63034 -78.56651 35963 ft 443 kts 204°
2026-05-08 01:45 30.57105 -78.58596 35974 ft 444 kts 204°
2026-05-08 01:46 30.51163 -78.60549 35993 ft 444 kts 204°
2026-05-08 01:46 30.45258 -78.62492 35977 ft 444 kts 204°
2026-05-08 01:47 30.39306 -78.64449 35982 ft 445 kts 204°
2026-05-08 01:47 30.33342 -78.66398 35990 ft 445 kts 204°
2026-05-08 01:48 30.24388 -78.69323 36001 ft 446 kts 204°
2026-05-08 01:48 30.18469 -78.71255 36009 ft 445 kts 204°
2026-05-08 01:49 30.12508 -78.73200 36016 ft 445 kts 204°
2026-05-08 01:49 30.06550 -78.75137 36020 ft 445 kts 204°
2026-05-08 01:50 30.00596 -78.77074 36016 ft 444 kts 204°
2026-05-08 01:50 29.94646 -78.79014 36013 ft 444 kts 205°
2026-05-08 01:51 29.88738 -78.80931 35978 ft 445 kts 204°
2026-05-08 01:51 29.82776 -78.82866 35987 ft 446 kts 204°
2026-05-08 01:52 29.76709 -78.84522 35996 ft 456 kts 195°
2026-05-08 01:52 29.70436 -78.85364 36003 ft 457 kts 195°
2026-05-08 01:53 29.64114 -78.86200 35990 ft 457 kts 195°
2026-05-08 01:53 29.57790 -78.87045 36001 ft 457 kts 195°
2026-05-08 01:54 29.51473 -78.87896 36005 ft 458 kts 195°
2026-05-08 01:54 29.45191 -78.88753 36013 ft 458 kts 195°
2026-05-08 01:55 29.38865 -78.89613 36020 ft 458 kts 195°
2026-05-08 01:55 29.32534 -78.90453 36003 ft 458 kts 194°
2026-05-08 01:56 29.26197 -78.91295 36014 ft 459 kts 194°
2026-05-08 01:56 29.19904 -78.92133 36019 ft 459 kts 194°
2026-05-08 01:57 29.13563 -78.92991 36022 ft 459 kts 194°
2026-05-08 01:57 29.07219 -78.93847 35996 ft 459 kts 194°
2026-05-08 01:58 29.00866 -78.94690 36003 ft 460 kts 194°
2026-05-08 01:58 28.94547 -78.95523 36013 ft 460 kts 194°
2026-05-08 01:59 28.88186 -78.96357 36023 ft 461 kts 194°
2026-05-08 01:59 28.81817 -78.97207 36028 ft 461 kts 194°
2026-05-08 02:00 28.75447 -78.98058 36020 ft 461 kts 193°
2026-05-08 02:00 28.69111 -78.98897 36024 ft 462 kts 193°
2026-05-08 02:01 28.62731 -78.99733 36035 ft 462 kts 193°
2026-05-08 02:01 28.56336 -79.00570 36048 ft 462 kts 193°
2026-05-08 02:02 28.49951 -79.01425 36020 ft 462 kts 193°
2026-05-08 02:02 28.43611 -79.02268 36040 ft 463 kts 193°
2026-05-08 02:03 28.37213 -79.03103 36032 ft 463 kts 193°
2026-05-08 02:03 28.31024 -79.04685 36038 ft 452 kts 205°
2026-05-08 02:04 28.25091 -79.06912 36039 ft 452 kts 205°
2026-05-08 02:04 28.19118 -79.09148 36022 ft 452 kts 204°
2026-05-08 02:05 28.13147 -79.11380 36030 ft 452 kts 204°
2026-05-08 02:05 28.07161 -79.13605 36039 ft 453 kts 204°
2026-05-08 02:06 28.01174 -79.15833 36043 ft 453 kts 204°
2026-05-08 02:06 27.95228 -79.18039 36050 ft 453 kts 204°
2026-05-08 02:07 27.89234 -79.20259 36033 ft 453 kts 204°
2026-05-08 02:07 27.83236 -79.22483 36041 ft 454 kts 204°
2026-05-08 02:08 27.77233 -79.24710 36047 ft 454 kts 204°
2026-05-08 02:08 27.71269 -79.26921 36053 ft 454 kts 204°
2026-05-08 02:09 27.65266 -79.29134 36055 ft 454 kts 203°
2026-05-08 02:09 27.59246 -79.31347 36043 ft 455 kts 203°
2026-05-08 02:10 27.53273 -79.33545 36048 ft 455 kts 203°
2026-05-08 02:10 27.50260 -79.34653 35833 ft 455 kts 203°
2026-05-08 02:10 27.47247 -79.35757 35595 ft 455 kts 203°
2026-05-08 02:11 27.44232 -79.36863 35360 ft 456 kts 203°
2026-05-08 02:11 27.41219 -79.37971 35127 ft 457 kts 203°
2026-05-08 02:11 27.38197 -79.39082 34898 ft 457 kts 203°
2026-05-08 02:11 27.35168 -79.40194 34665 ft 458 kts 203°
2026-05-08 02:12 27.32134 -79.41309 34434 ft 459 kts 204°
2026-05-08 02:12 27.29137 -79.42413 34210 ft 460 kts 204°
2026-05-08 02:12 27.26094 -79.43532 33984 ft 460 kts 204°
2026-05-08 02:12 27.23051 -79.44644 33724 ft 461 kts 204°
2026-05-08 02:13 27.20002 -79.45757 33459 ft 461 kts 204°
2026-05-08 02:13 27.16950 -79.46871 33181 ft 461 kts 204°
2026-05-08 02:13 27.13886 -79.47988 32222 ft 466 kts 203°
2026-05-08 02:13 27.10784 -79.49127 31244 ft 471 kts 203°
2026-05-08 02:14 27.07662 -79.50275 30281 ft 475 kts 203°
2026-05-08 02:14 27.04496 -79.51433 29134 ft 480 kts 203°
2026-05-08 02:14 27.01358 -79.52575 28028 ft 483 kts 203°
2026-05-08 02:14 26.98155 -79.53739 26897 ft 485 kts 203°
2026-05-08 02:15 26.94926 -79.54912 25675 ft 490 kts 203°
2026-05-08 02:15 26.91673 -79.56094 24487 ft 494 kts 202°
2026-05-08 02:15 26.88393 -79.57285 23434 ft 495 kts 202°
2026-05-08 02:15 26.85145 -79.58460 22683 ft 487 kts 202°
2026-05-08 02:16 26.81946 -79.59611 21900 ft 480 kts 202°
2026-05-08 02:16 26.78819 -79.60734 21097 ft 474 kts 202°
2026-05-08 02:16 26.75702 -79.61854 20523 ft 464 kts 201°
2026-05-08 02:16 26.72691 -79.62935 20397 ft 445 kts 201°
2026-05-08 02:17 26.69806 -79.63969 20268 ft 426 kts 202°
2026-05-08 02:17 26.67048 -79.64954 20157 ft 408 kts 202°
2026-05-08 02:17 26.64394 -79.65906 19960 ft 395 kts 202°
2026-05-08 02:17 26.61803 -79.66838 19550 ft 388 kts 202°
2026-05-08 02:18 26.59238 -79.67753 19087 ft 385 kts 201°
2026-05-08 02:18 26.56689 -79.68650 18605 ft 383 kts 201°
2026-05-08 02:18 26.54188 -79.69521 18113 ft 380 kts 201°
2026-05-08 02:18 26.51668 -79.70394 17587 ft 378 kts 200°
2026-05-08 02:19 26.49168 -79.71264 17085 ft 375 kts 200°
2026-05-08 02:19 26.46784 -79.72361 16589 ft 368 kts 212°
2026-05-08 02:19 26.44690 -79.73959 16113 ft 362 kts 223°
2026-05-08 02:19 26.42926 -79.75938 15631 ft 358 kts 230°
2026-05-08 02:20 26.41260 -79.77974 15241 ft 354 kts 229°
2026-05-08 02:20 26.39602 -79.79991 14975 ft 351 kts 229°
2026-05-08 02:20 26.38031 -79.82057 14697 ft 348 kts 235°
2026-05-08 02:20 26.36496 -79.84088 14457 ft 348 kts 226°
2026-05-08 02:21 26.34693 -79.85890 14224 ft 348 kts 221°
2026-05-08 02:21 26.32810 -79.87571 13997 ft 347 kts 219°
2026-05-08 02:21 26.30898 -79.89216 13762 ft 346 kts 219°
2026-05-08 02:21 26.29005 -79.90855 13507 ft 345 kts 220°
2026-05-08 02:22 26.27130 -79.92514 13246 ft 343 kts 220°
2026-05-08 02:22 26.25282 -79.94186 13005 ft 342 kts 221°
2026-05-08 02:22 26.23446 -79.95875 12752 ft 341 kts 221°
2026-05-08 02:22 26.21656 -79.97536 12515 ft 339 kts 221°
2026-05-08 02:23 26.19848 -79.99228 12268 ft 340 kts 221°
2026-05-08 02:23 26.18310 -80.01203 12026 ft 338 kts 239°
2026-05-08 02:23 26.17106 -80.03444 11783 ft 336 kts 239°
2026-05-08 02:23 26.15933 -80.05647 11543 ft 326 kts 239°
2026-05-08 02:24 26.14802 -80.07776 11422 ft 314 kts 240°
2026-05-08 02:24 26.13710 -80.09830 11305 ft 302 kts 239°
2026-05-08 02:24 26.12659 -80.11808 11172 ft 292 kts 239°
2026-05-08 02:24 26.11635 -80.13734 10886 ft 287 kts 239°
2026-05-08 02:25 26.10632 -80.15617 10554 ft 286 kts 239°
2026-05-08 02:25 26.09619 -80.17516 10224 ft 284 kts 239°
2026-05-08 02:25 26.08613 -80.19400 9883 ft 284 kts 239°
2026-05-08 02:25 26.07605 -80.21288 9499 ft 282 kts 239°
2026-05-08 02:26 26.06609 -80.23154 9120 ft 279 kts 239°
2026-05-08 02:26 26.05621 -80.25004 8561 ft 277 kts 239°
2026-05-08 02:26 26.04643 -80.26843 8007 ft 275 kts 239°
2026-05-08 02:26 26.03725 -80.28700 7454 ft 273 kts 242°
2026-05-08 02:27 26.02889 -80.30558 6930 ft 271 kts 244°
2026-05-08 02:27 26.02073 -80.32439 6403 ft 270 kts 244°
2026-05-08 02:27 26.01285 -80.34272 6195 ft 254 kts 244°
2026-05-08 02:27 26.00545 -80.35986 6010 ft 240 kts 244°
2026-05-08 02:28 25.99830 -80.37636 5657 ft 235 kts 245°
2026-05-08 02:28 25.99118 -80.39263 5248 ft 233 kts 246°
2026-05-08 02:28 25.98409 -80.40875 4857 ft 233 kts 245°
2026-05-08 02:28 25.97699 -80.42484 4603 ft 231 kts 245°
2026-05-08 02:29 25.96995 -80.44075 4379 ft 226 kts 245°
2026-05-08 02:29 25.96322 -80.45592 4258 ft 218 kts 245°
2026-05-08 02:29 25.95655 -80.47071 4147 ft 209 kts 244°
2026-05-08 02:29 25.95015 -80.48475 4001 ft 201 kts 245°
2026-05-08 02:30 25.94383 -80.49867 3666 ft 203 kts 245°
2026-05-08 02:30 25.93746 -80.51261 3362 ft 202 kts 242°
2026-05-08 02:30 25.92779 -80.52361 3091 ft 202 kts 206°
2026-05-08 02:30 25.91410 -80.52510 3008 ft 203 kts 161°
2026-05-08 02:31 25.90240 -80.51655 3011 ft 205 kts 125°
2026-05-08 02:31 25.89821 -80.50186 3021 ft 206 kts 96°
2026-05-08 02:31 25.89431 -80.48674 3009 ft 202 kts 122°
2026-05-08 02:31 25.88680 -80.47377 3040 ft 198 kts 121°
2026-05-08 02:32 25.87995 -80.46047 3019 ft 198 kts 120°
2026-05-08 02:32 25.87320 -80.44718 2831 ft 197 kts 120°
2026-05-08 02:32 25.86649 -80.43399 2590 ft 194 kts 120°
2026-05-08 02:32 25.86015 -80.42154 2357 ft 176 kts 120°
2026-05-08 02:33 25.85431 -80.41009 2131 ft 163 kts 121°
2026-05-08 02:33 25.84891 -80.39949 1922 ft 158 kts 121°
2026-05-08 02:33 25.84354 -80.38898 1719 ft 156 kts 121°
2026-05-08 02:33 25.83824 -80.37859 1519 ft 153 kts 121°
2026-05-08 02:34 25.83301 -80.36835 1317 ft 152 kts 122°
2026-05-08 02:34 25.82783 -80.35819 1122 ft 151 kts 121°
2026-05-08 02:34 25.82269 -80.34812 946 ft 149 kts 122°
2026-05-08 02:34 25.81763 -80.33823 765 ft 146 kts 122°
2026-05-08 02:35 25.81268 -80.32854 584 ft 144 kts 121°
2026-05-08 02:35 25.80780 -80.31898 402 ft 144 kts 121°
2026-05-08 02:35 25.80288 -80.30932 207 ft 143 kts 119°
2026-05-08 02:35 25.79805 -80.29994 28 ft 137 kts 120°
2026-05-08 02:36 25.79395 -80.29189 14 ft 94 kts 118°
2026-05-08 02:36 25.79162 -80.28733 14 ft 47 kts 119°
2026-05-08 02:36 25.79103 -80.28524 14 ft 19 kts 90°
2026-05-08 02:36 25.79102 -80.28413 15 ft 12 kts 105°
2026-05-08 02:37 25.79085 -80.28359 16 ft 11 kts 118°
2026-05-08 02:37 25.79034 -80.28265 16 ft 11 kts 119°
2026-05-08 02:37 25.78998 -80.28194 16 ft 11 kts 119°
2026-05-08 02:37 25.78961 -80.28121 16 ft 11 kts 119°
2026-05-08 02:38 25.78933 -80.28067 16 ft 6 kts 119°
2026-05-08 02:38 25.78914 -80.28028 16 ft 6 kts 119°
2026-05-08 02:38 25.78920 -80.28003 16 ft 3 kts 53°
2026-05-08 02:38 25.78933 -80.27981 16 ft 3 kts 63°
2026-05-08 02:39 25.78936 -80.27959 16 ft 7 kts 84°
2026-05-08 02:39 25.78952 -80.27846 16 ft 11 kts 50°
2026-05-08 02:39 25.79024 -80.27810 15 ft 11 kts 22°
2026-05-08 02:39 25.79098 -80.27780 15 ft 11 kts 13°
2026-05-08 02:40 25.79158 -80.27772 15 ft 3 kts
2026-05-08 02:40 25.79177 -80.27770 15 ft 3 kts
2026-05-08 02:40 25.79182 -80.27764 15 ft 1 kts 49°
2026-05-08 02:40 25.79183 -80.27758 15 ft 2 kts 74°
2026-05-08 02:41 25.79180 -80.27729 15 ft 4 kts 99°
2026-05-08 02:41 25.79177 -80.27711 15 ft 0 kts 104°